This is the latest recevied weather packets stored in our database for station/object DH5WR-10. If no packets are shown the sender has not sent any weather packets the latest 10 day(s).
| Time | Temp. | Humidity | Pressure | Rain* | Wind** | Luminosity | Snow |
|---|---|---|---|---|---|---|---|
| 1777666042 | 13.33° C | 43% | 1025.3 hPa | - | - | - | - |
| 1777665142 | 13.89° C | 42% | 1025.2 hPa | - | - | - | - |
| 1777664242 | 14.44° C | 41% | 1025 hPa | - | - | - | - |
| 1777663342 | 14.44° C | 40% | 1025 hPa | - | - | - | - |
| 1777662442 | 15° C | 39% | 1024.9 hPa | - | - | - | - |
| 1777661541 | 15.56° C | 38% | 1024.8 hPa | - | - | - | - |
| 1777660641 | 16.11° C | 37% | 1024.6 hPa | - | - | - | - |
| 1777659741 | 16.67° C | 35% | 1024.6 hPa | - | - | - | - |
| 1777658841 | 17.22° C | 34% | 1024.7 hPa | - | - | - | - |
| 1777657941 | 17.78° C | 33% | 1024.7 hPa | - | - | - | - |
| 1777657041 | 18.33° C | 31% | 1024.4 hPa | - | - | - | - |
| 1777656140 | 18.33° C | 30% | 1024.5 hPa | - | - | - | - |
| 1777655240 | 18.89° C | 29% | 1024.5 hPa | - | - | - | - |
| 1777654340 | 18.89° C | 29% | 1024.5 hPa | - | - | - | - |
| 1777653440 | 19.44° C | 28% | 1024.5 hPa | - | - | - | - |
| 1777652540 | 19.44° C | 27% | 1024.6 hPa | - | - | - | - |
| 1777651640 | 20° C | 27% | 1024.6 hPa | - | - | - | - |
| 1777650740 | 20° C | 26% | 1024.6 hPa | - | - | - | - |
| 1777649839 | 20° C | 27% | 1024.6 hPa | - | - | - | - |
| 1777648939 | 20.56° C | 25% | 1024.6 hPa | - | - | - | - |
| 1777648039 | 20.56° C | 24% | 1024.8 hPa | - | - | - | - |
| 1777647139 | 20.56° C | 25% | 1024.8 hPa | - | - | - | - |
| 1777646239 | 20.56° C | 25% | 1025 hPa | - | - | - | - |
| 1777645339 | 20.56° C | 25% | 1025 hPa | - | - | - | - |
| 1777644438 | 20° C | 25% | 1025 hPa | - | - | - | - |
* Rain since midnight (hover to see other rain measurements)
** Current wind speed in m/s (hover to see current wind gust speed)